Regional Weather Roundup
Issued by NWS Wakefield, VA

Home | Current Version | Previous Version | Graphics & Text | Print | Product List | Glossary On
Versions: 1 2 3 4 5 6 7 8 9 10 11 12 13 14 15 16 17 18 19 20 21 22 23 24 25 26 27 28 29 30 31 32 33 34 35 36 37 38 39 40 41 42 43 44 45 46 47 48 49 50
000
ASUS41 KAKQ 031215
RWRAKQ

REGIONAL WEATHER ROUNDUP
NATIONAL WEATHER SERVICE WAKEFIELD VA
800 AM EDT WED JUN 03 2015

Note: "fair" indicates few or no clouds below 12,000 feet with no
significant weather and/or obstructions to visibility. * = Denotes
station may not report precipitation (e.g., rain,snow,etc.),
thunder or fog.

VAZ042-051-052>054-056-031300-
NORTHERN VIRGINIA

CITY           SKY/WX    TMP DP  RH WIND       PRES   REMARKS
WASH NATIONAL  CLOUDY    61  55  82 N14       30.17R FOG
DULLES         CLOUDY    55  54  94 NE10G20   30.17R
FORT BELVOIR   CLOUDY    57  55  94 N2        30.16R FOG
QUANTICO       LGT RAIN  59  56  89 E14       30.16R
FREDERICKSBRG* CLOUDY    60  60 100 NE9       30.14R
STAFFORD*      CLOUDY    57  55  93 NE8       30.19R
WARRENTON      CLOUDY    58  57  98 NE8       30.16R
CULPEPER*      CLOUDY    56  55  94 CALM      30.17R
MANASSAS*      CLOUDY   N/A N/A N/A NE7       30.16R FOG
LEESBURG*      CLOUDY    57  55  94 E5        30.18S
WINCHESTER     CLOUDY    57  55  94 E3        30.17R FOG
FRONT ROYAL*   CLOUDY    55  54  94 NE5       30.15S
LURAY*         CLOUDY    59  59 100 N8        30.16R
$$

VAZ048-049-060>072-079>083-031300-
CENTRAL AND SOUTH CENTRAL VIRGINIA

CITY           SKY/WX    TMP DP  RH WIND       PRES   REMARKS
RICHMOND       CLOUDY    60  57  89 NE13      30.10R
CHESTERFIELD*  NOT AVBL
PETERSBURG*    LGT RAIN  61  61 100 N8        30.10R
HANOVER        CLOUDY    59  57  93 NE6       30.13R
TAPPAHANNOCK*  CLOUDY    59  56  88 NE7       30.12S
QUINTON*       CLOUDY    59  58  98 NE5       30.10R
CHARLOTTSVILLE CLOUDY    57  55  93 NE9       30.14R FOG
GORDONSVILLE*  CLOUDY    57  55  94 NE6       30.14R
ORANGE*        CLOUDY    59  55  88 N6        30.16R
LOUISA*        CLOUDY    57  57 100 NE9       30.12R
BUMPASS*       CLOUDY    57  56  98 NE6       30.12S
FARMVILLE*     DRIZZLE   59  59 100 N7        30.10R
CREWE*         CLOUDY    59  57  96 N5        30.10R
FORT PICKETT*  CLOUDY    59  57  94 NE12      30.09R
CHASE CITY*    CLOUDY    61  61 100 N5        30.09R
CLARKSVILLE*   CLOUDY    59  59 100 NE3       30.08R
SOUTH HILL*    CLOUDY    60  59  98 NE3       30.14R
LAWRENCEVILLE* CLOUDY    61  61 100 N5        30.08R
EMPORIA*       CLOUDY    61  61 100 N7        30.09R FOG
$$

VAZ088>098-031300-
SOUTHEAST VIRGINIA

CITY           SKY/WX    TMP DP  RH WIND       PRES   REMARKS
NORFOLK        CLOUDY    65  61  87 NE17G24   30.06R
VIRGINIA BEACH CLOUDY    65  61  87 N16       30.05R
NORFOLK NAVAL  CLOUDY    69  62  78 NE17      30.08R
WEST POINT*    CLOUDY    62  60  91 NE3       30.12R
SALUDA*        CLOUDY    61  58  91 NE8       30.10R
NEWPORT NEWS   LGT RAIN  68  62  81 NE10      30.08R
LANGLEY AFB    CLOUDY    64  62  94 NE10      30.07R
FORT EUSTIS    CLOUDY    63 N/A N/A VRB3      30.06R
WILLIAMSBURG*  CLOUDY    64  64 100 NE3       30.09R
HR EXEC AP*    CLOUDY    64  63  94 NE7       30.08R
FRANKLIN*      CLOUDY    64  63  97 N6        30.08R FOG
WAKEFIELD      CLOUDY    63  60  90 NE6       30.08R FOG
$$

VAZ020-022-025-037-045-031300-
WEST CENTRAL AND SOUTHWEST VIRGINIA

CITY           SKY/WX    TMP DP  RH WIND       PRES   REMARKS
STAUNTON*      CLOUDY    58  56  93 NE5       30.17R FOG
WAYNESBORO*    CLOUDY    55  55 100 N8        30.14R
HOT SPRINGS VA RAIN      51  51 100 E8        30.13S VSB<1/4
LYNCHBURG      CLOUDY    56  56 100 N10       30.13R FOG
DANVILLE       LGT RAIN  60  57  89 NE8       30.09R FOG
SOUTH BOSTON*  CLOUDY    59  57  95 NE5       30.09R
MARTINSVILLE   CLOUDY    59  59 100 NE6       30.12R FOG
ROANOKE        DRIZZLE   59  58  96 NE5       30.13R FOG
BLACKSBURG     CLOUDY    57  56  96 E7        30.14R
DUBLIN*        CLOUDY    59  59 100 E8        30.12R
MARION*        CLOUDY    60  59  96 E9        30.12R FOG
HILLSVILLE*    CLOUDY    57  57  99 NE5       30.13R FOG
RICHLANDS*     CLOUDY    60  60 100 CALM      30.08R
WISE*          FOG       57  57 100 CALM      30.09R VSB 1/4
ABINGDON*      MOSUNNY   63  63 100 E7        30.06R
$$

MDZ021>025-VAZ099-100-031300-
SOUTHERN MARYLAND AND THE DELMARVA PENINSULA

CITY           SKY/WX    TMP DP  RH WIND       PRES   REMARKS
PATUXENT RIVER DRIZZLE   58  56  93 NE12      30.13R FOG
BAY BRIDGE APT   N/A    N/A N/A N/A NE6       30.17R
LEONARDTOWN    CLOUDY    55  54  94 NE3       30.14S
DOVER          CLOUDY    56  56 100 NE14      30.14R
GEORGETOWN     LGT RAIN  56  55  97 NE10      30.15R FOG
EASTON         CLOUDY    57  57 100 NE9       30.19R
CAMBRIDGE      CLOUDY    59  55  88 NE5       30.13R
SALISBURY      LGT RAIN  57  56  96 NE10      30.12R FOG
OCEAN CITY     CLOUDY    59  57  93 NE10G20   30.12R FOG
WALLOPS ISLAND CLOUDY    61  60  97 NE18G28   30.10R
ACCOMACK*      CLOUDY    61  61 100 NE16G22   30.08S
$$

NCZ012>017-030>032-031300-
NORTH CENTRAL AND EASTERN NORTH CAROLINA

CITY           SKY/WX    TMP DP  RH WIND       PRES   REMARKS
ROANOKE RAPIDS LGT RAIN  61  61 100 NE7       30.06R
RALEIGH        CLOUDY    63  61  93 NE8       30.06R FOG
ELIZABETH CITY CLOUDY    66  65  96 NE13      30.06R FOG
AHOSKIE*       LGT RAIN  64  63  96 NE6       30.06R
EDENTON*       LGT RAIN  64  64  98 NE3       30.05R
CURRITUCK*     CLOUDY    65  64  95 N9        30.07R FOG
KILL DEVIL HLS CLOUDY    64  64 100 N6        30.04R
MANTEO         CLOUDY    67  66  99 N9        30.04R FOG
CAPE HATTERAS  CLOUDY    76  68  76 S8        30.02R
TARBORO*       DRIZZLE   66  65  94 NE5       30.05R
GOLDSBORO      CLOUDY    70  69  96 CALM      30.00R
WASHINGTON     RAIN      67  66  96 E7        30.03S
GREENVILLE     LGT RAIN  68  68 100 E8        30.04R
NEW BERN       RAIN      69  67  93 NE7       30.03S
WILMINGTON     RAIN      69  67  93 E3        30.02R FOG
$$

VAZ048-031300-
ELSEWHERE

CITY           SKY/WX    TMP DP  RH WIND       PRES   REMARKS
HARRISBURG PA  CLOUDY    58  53  84 E8        30.20R
BALTIMORE      DRIZZLE   55  53  93 NE13      30.17R
ANNAPOLIS      CLOUDY    57  57 100 NE7       30.17R FOG
ANDREWS AFB    CLOUDY    55  55 100 NE10      30.15R FOG
PHILADELPHIA   CLOUDY    56  51  84 NE10      30.21R
HENDERSON NC   DRIZZLE   61  59  94 NE8       30.07R
GREENSBORO     CLOUDY    60  59  96 NE15      30.06S
ROCKY MOUNT    CLOUDY    67  65  93 NE8       30.05R
$$

VAZ100-031300-
MARINE

STATION/POSITION TIME  TEMP    WIND        PRES    WAVE   SWELL
                       AIR SEA DIR/SP/G            HT/PER HT/PER
                 (UTC) (F)     (DEG/KT/KT) (MB)    (FT/S) (FT/S)
BRANDYWINE LGT   1100   56 66   70/ 18/ 22 1020.4R
CAPE MAY NJ      1100   55 63   50/  9/ 16 1020.0R
LEWES DE         1100   57 62   70/ 19/ 21 1020.3R
15NM E FENWICK I 1150   60 64              1019.0R   7/ 7
OCEAN-CITY-INLET 1100   58 58   70/  5/ 10 1019.4R
WACHAPREAGUE VA  1100   61 69   30/ 19/ 25 1018.2R
THOMAS POINT MD  1200   56 71   50/ 16/ 17 1021.9R
GOOSES REEF MD   1200   59 71   50/ 14/ 19 1021.6R   2/ 3
COVE POINT MD    1100   58      70/ 12/ 14 1020.7R
SOLOMONS ISLAND  1100      71                N/A
BISHOPS HEAD MD  1100   59 68   40/ 13/ 19 1019.2R
PINEY POINT MD   1100           70/  8/ 10   N/A
CAMBRIDGE MD     1100   58 73   50/ 11/ 14 1020.0R
LEWISETTA VA     1100   60 72              1019.3R
RAPPAHANNOCK LGT 1100           40/ 19/ 22 1018.6R
STINGRAY PT      1200   63 72   40/ 17/ 21 1018.3R   3/ 3
YORK RVR RNG VA  1100   65      50/ 21/ 25 1017.2R
YORKTOWN VA      1100   63 74   30/ 13/ 15 1017.9R
JAMESTOWN VA     1200   62 79   30/  6/ 10   N/A
DOMINION TERM VA 1100   65      50/  8/ 13 1017.7R
KIPTOPEKE VA     1100      71   50/ 12/ 21   N/A
CHES BAY BRIDGE  1100   64 70   20/ 22/ 24 1016.8R
CAPE HENRY VA    1100   62      10/ 22/ 26 1016.0R
CHESAPEAKE LGHT  1100   64      20/ 23/ 25 1016.9F
WILLOUBY STN VA  1100   65      30/ 16/ 18 1018.4R
CAPE HENRY BUOY  1128      68                N/A     5/ 5
1ST LANDING BUOY 1200      63              1017.4R
CAPE CHARLES BUO 1126      66                N/A     5/ 6   2/13
OFFSHORE WE BUOY 1111      70                N/A     5/ 7   3/ 7
64NM E OF VA BCH 1150   72 73   50/  6/  6 1016.2R   3/ 7   3/ 7
DUCK PIER NC     1100   62 58  350/ 14/ 17 1015.5R
44100 DUCK FRF   1124      73                N/A     4/ 7
44056 DUCK FRF   1111      60                N/A     4/ 7
OREGON INLET NC  1100   71 69  360/  9/ 11 1016.0R
HATTERAS NC      1100   76 77  140/  6/  9 1015.4R
DIAMOND SHLS NC  1150   75 81  220/ 10/ 12 1016.2R   2/ 8   2/ 8
CAPE LOOKOUT NC  1200   71     260/ 11/ 12 1016.5R
$$


USA.gov is the U.S. government's official web portal to all federal, state and local government web resources and services.